Location: Asheville, NC
(35.6000°N, 82.5500°W)
Time: 00:36:16
(UTC-04:00)

XW-2C - Pass Details

Date: 14 March 2018
Orbit: 509 x 531 km, 97.5° (Epoch: 18 June)

Event Time Altitude Azimuth Distance (km) Brightness Sun altitude
Rises 06:31:24 0° 35° (NE) 2,664 ? -15.2°
Reaches altitude 10° 06:34:26 10° 62° (ENE) 1,773 ? -14.6°
Maximum altitude 06:36:25 14° 93° (E) 1,549 ? -14.2°
Drops below altitude 10° 06:38:24 10° 125° (SE) 1,770 ? -13.8°
Sets 06:41:25 0° 152° (SSE) 2,656 ? -13.2°
